Acapulco / Gro., Mexico

1:16 PM CST on December 09, 2016 (GMT -0600)
Gen Juan N Alvarez International

Weather History for MMAA - December, 2012

Change the Weather History Date:

Saturday, December 22, 2012

  Actual Average Record
Temperature  
Mean Temperature 81 °F -  
Max Temperature 91 °F 88 °F 91 °F (2012)
Min Temperature 71 °F 70 °F 66 °F (1999)
Cooling Degree Days 16    
Growing Degree Days 31 (Base 50)    
Moisture  
Dew Point 73 °F    
Average Humidity 73    
Maximum Humidity 89    
Minimum Humidity 46    
Precipitation  
Precipitation 0.00 in 0.01 in - ()
Sea Level Pressure  
Sea Level Pressure 29.89 in    
Wind  
Wind Speed 3 mph ()    
Max Wind Speed 20 mph    
Max Gust Speed -    
Visibility 8.6 miles    
Events      
Averages and records for this station are not official NWS values.
T = Trace of Precipitation, MM = Missing Value Source: Averaged Metar Reports

Daily Weather History Graph

Daily Weather History Graph

Search for Another Location

Airport or City:

Trip Planner

Search our weather history database for the weather conditions in past years. The results will help you decide how hot, cold, wet, or windy it might be!

Date:

Astronomy

Dec. 22, 2012 Rise Set
Actual Time 7:04 AM CST 6:11 PM CST
Civil Twilight 6:40 AM CST 6:35 PM CST
Nautical Twilight 6:13 AM CST 7:02 PM CST
Astronomical Twilight 5:46 AM CST 7:29 PM CST
Moon 2:07 PM CST (12/22) 2:17 AM CST (12/22)
Length of Visible Light 11h 54m
Length of Day
11h 07m
Waxing Gibbous, 74% of the Moon is Illuminated
Dec 22
Waxing Gibbous
Dec 28
Full
Jan 4
Last Quarter
Jan 11
New
Jan 18
First Quarter

Hourly Weather History & Observations

Time (CST) Temp. Heat Index Dew Point Humidity Pressure Visibility Wind Dir Wind Speed Gust Speed Precip Events Conditions
12:48 AM 80.6 °F 86.2 °F 75.2 °F 84% 29.91 in 8.0 mi Calm Calm - N/A   Clear
1:45 AM 78.8 °F - 73.4 °F 83% 29.91 in 8.0 mi Calm Calm - N/A   Clear
2:45 AM 78.8 °F - 73.4 °F 83% 29.92 in 8.0 mi Calm Calm - N/A   Clear
3:45 AM 78.8 °F - 73.4 °F 83% 29.90 in 8.0 mi Calm Calm - N/A   Clear
4:47 AM 78.8 °F - 73.4 °F 83% 29.91 in 8.0 mi Calm Calm - N/A   Clear
5:47 AM 77.0 °F - 71.6 °F 83% 29.91 in 8.0 mi Calm Calm - N/A   Clear
6:47 AM 75.2 °F - 69.8 °F 83% 29.91 in 8.0 mi Calm Calm - N/A   Clear
7:48 AM 77.0 °F - 71.6 °F 83% 29.93 in 8.0 mi Calm Calm - N/A   Clear
8:44 AM 77.0 °F - 71.6 °F 83% 29.92 in 8.0 mi Calm Calm - N/A   Clear
8:45 AM 76 °F - 67 °F 66% 29.94 in 12 mi East 2.2 mph - -  
9:41 AM 77.0 °F - 71.6 °F 83% 29.95 in 8.0 mi Calm Calm - N/A   Clear
10:45 AM 80.6 °F 84.6 °F 71.6 °F 74% 29.94 in 8.0 mi Calm Calm - N/A   Clear
11:42 AM 86.0 °F 91.8 °F 71.6 °F 62% 29.92 in 8.0 mi West 8.1 mph - N/A   Clear
11:50 AM 88 °F - 70 °F 46% 29.91 in 12 mi East 11.2 mph - -  
12:41 PM 89.6 °F 99.8 °F 75.2 °F 62% 29.90 in 8.0 mi West 9.2 mph - N/A   Clear
1:42 PM 89.6 °F 99.8 °F 75.2 °F 62% 29.87 in 8.0 mi West 9.2 mph - N/A   Clear
2:44 PM 89.6 °F 99.8 °F 75.2 °F 62% 29.84 in 8.0 mi WSW 9.2 mph - N/A   Clear
2:50 PM 87 °F - 71 °F 49% 29.85 in 12 mi NE 20.1 mph - -  
3:42 PM 89.6 °F 96.2 °F 71.6 °F 55% 29.83 in 8.0 mi West 11.5 mph - N/A   Clear
4:42 PM 87.8 °F 95.6 °F 73.4 °F 62% 29.83 in 8.0 mi West 11.5 mph - N/A   Clear
5:42 PM 87.8 °F 95.6 °F 73.4 °F 62% 29.81 in 8.0 mi WSW 11.5 mph - N/A   Clear
5:45 PM 83 °F - 73 °F 65% 29.83 in 12 mi East 20.1 mph - -  
6:42 PM 84.2 °F 90.9 °F 73.4 °F 70% 29.84 in 8.0 mi West 6.9 mph - N/A   Clear
7:42 PM 84.2 °F 90.9 °F 73.4 °F 70% 29.85 in 8.0 mi Calm Calm - N/A   Clear
8:42 PM 80.6 °F 86.2 °F 75.2 °F 84% 29.82 in 8.0 mi Calm Calm - N/A   Clear
9:42 PM 80.6 °F 86.2 °F 75.2 °F 84% 29.89 in 8.0 mi Calm Calm - N/A   Clear
10:42 PM 78.8 °F - 73.4 °F 83% 29.89 in 8.0 mi Calm Calm - N/A   Clear
11:42 PM 77.0 °F - 73.4 °F 89% 29.86 in 8.0 mi Calm Calm - N/A   Clear